Regional Weather Roundup
Issued by NWS

Home | Current Version | Previous Version | Text Only | Print | Product List | Glossary On
Versions: 1 2 3 4 5 6 7 8 9 10 11 12 13 14 15 16 17 18 19 20 21 22 23 24 25 26 27 28 29 30 31 32 33 34 35 36 37 38 39 40 41 42 43 44 45 46 47 48 49 50
595
ASUS43 KMPX 270901
RWRMN
WEATHER ROUNDUP FOR MINNESOTA
NATIONAL WEATHER SERVICE TWIN CITIES/CHANHASSEN MN
400 AM CDT THU JUL 27 2017


NOTE: "FAIR" INDICATES FEW OR NO CLOUDS BELOW 12,000 FEET WITH NO
SIGNIFICANT WEATHER AND/OR OBSTRUCTIONS TO VISIBILITY. N/A MEANS
CURRENT SKY AND/OR WEATHER CONDITIONS ARE NOT AVAILABLE.

MNZ060>063-068>070-271000-
   Twin Cities Metro

CITY           SKY/WX    TMP DP  RH WIND       PRES   REMARKS
TWIN CITIES    CLEAR     68  61  78 N7        30.04S
ST PAUL        CLEAR     67  63  87 W5        30.04S
CRYSTAL        CLEAR     65  58  78 NW5       30.04R
BLAINE         CLEAR     66  61  82 N5        30.05S
LAKEVILLE      CLEAR     64  64 100 W3        30.04S
EDEN PRAIRIE   CLEAR     67  62  84 N6        30.04S
SOUTH ST PAUL  CLEAR     68  61  78 N3        30.04R
LAKE ELMO      FAIR      63  63 100 CALM      30.05S
$$
MNZ001>005-007-008-013>017-022>024-027-028-271000-
   Northwest Minnesota

CITY           SKY/WX    TMP DP  RH WIND       PRES   REMARKS
BEMIDJI        CLEAR     56  55  96 NW7       30.12R
HALLOCK        PTCLDY    54  54 100 CALM      30.10S
ROSEAU         CLEAR     64  59  82 W9        30.09S
WARROAD        CLEAR     57  54  88 CALM      30.10S
CROOKSTON      CLEAR     61  57  88 CALM      30.12R
FOSSTON        CLEAR     54  52  94 CALM      30.13S
DETROIT LAKES  CLEAR     63  59  88 N3        30.13S
MOORHEAD       CLEAR     61  57  88 CALM      30.12R
PARK RAPIDS    CLEAR     57  55  93 NW3       30.11S
MAHNOMEN       FAIR      57  55  94 CALM      30.12S
$$
MNZ006-009>011-018-025>026-271000-
   North Central Minnesota

CITY           SKY/WX    TMP DP  RH WIND       PRES   REMARKS
BAUDETTE       CLEAR     58  58 100 W3        30.09R
FLAG ISLAND    CLEAR     66  61  82 NW3       30.07F
INTL FALLS     FOG       52  50  93 CALM      30.07S VSB 1/2
WASKISH        CLEAR     61  57  88 CALM      30.10S
BIG FORK       MOCLDY    54  52  94 CALM      30.10R
LONGVILLE      CLEAR     54  54 100 CALM      30.10S FOG
GRAND RAPIDS   FOG       58  57  97 CALM      30.11S VSB 1
CRANE LAKE     CLEAR     50  50 100 CALM      30.09S
ORR            CLEAR     54  52  94 CALM      30.06S
COOK             N/A     54  54 100 CALM      30.09R
WALKER         FAIR      58  56  96 CALM      30.11S
$$
MNZ012-019>021-037-271000-
   Northeast Minnesota

CITY           SKY/WX    TMP DP  RH WIND       PRES   REMARKS
DULUTH         CLEAR     60  58  92 N6        30.07S
ELY            CLEAR     54  54 100 CALM      30.08S
HIBBING        CLEAR     51  51 100 CALM      30.09R
EVELETH        CLEAR     54  51  90 CALM      30.09S
DULUTH HARBOR  CLEAR     64  61  88 CALM      30.06R
TWO HARBORS    CLEAR     63  57  82 CALM      30.05R
SILVER BAY     CLOUDY    61  57  88 CALM      30.04S
GRAND MARAIS     N/A     68  58  70 N8        30.02S
G MARAIS ARPRT CLEAR     55  52  88 NW3       30.09R
$$
MNZ029>031-032-039>041-046>048-054>057-064-271000-
   West Central Minnesota

CITY           SKY/WX    TMP DP  RH WIND       PRES   REMARKS
FERGUS FALLS   CLEAR     63  61  94 NE3       30.11R
WHEATON        CLEAR     61  57  88 CALM      30.13S
ALEXANDRIA     CLEAR     64  60  87 N5        30.12S
ELBOW LAKE     FOG       64  61  93 CALM      30.12R VSB 3/4
WADENA         CLEAR     59  59 100 N3        30.10F
GLENWOOD       CLEAR     63  61  94 N7        30.12R
BENSON         FOG       61  59  94 CALM      30.11S VSB 1/2
ORTONVILLE     CLEAR     63  59  88 MISG      30.11
MADISON        CLEAR     63  63 100 W3        30.11R
WILLMAR        FAIR      66  63  88 CALM      30.10S
$$
MNZ033>034-036-042>043-049>051-058-059-271000-
   Central Minnesota

CITY           SKY/WX    TMP DP  RH WIND       PRES   REMARKS
ST CLOUD       CLEAR     62  62 100 N3        30.08R
SAUK CENTRE    FAIR      62  60  91 CALM      30.11R
PAYNESVILLE    CLEAR     61  60  94 CALM      30.11R
AITKIN         MOCLDY    52  52 100 CALM      30.08S FOG
PINE RIVER     CLEAR     55  55 100 CALM      30.14R
BRAINERD       CLEAR     63  60  90 N5        30.09S
STAPLES        CLEAR     59  57  94 CALM      30.10S
LONG PRAIRIE   FAIR      61  57  88 CALM      30.11S
LITTLE FALLS   CLEAR     59  55  88 CALM      30.09S
LITCHFIELD     CLEAR     66  63  88 CALM      30.09R
BUFFALO        CLEAR     64  59  84 CALM      30.08R
MAPLE LAKE     CLEAR     64  62  93 NW5       30.09R
HUTCHINSON     CLEAR     64  63  96 NW5       30.09R
$$
MNZ037-044-045-052-053-271000-
   East Central Minnesota

CITY           SKY/WX    TMP DP  RH WIND       PRES   REMARKS
PRINCETON      CLEAR     61  59  94 CALM      30.08R
MORA           CLEAR     61  55  82 CALM      30.09R
CAMBRIDGE      CLEAR     64  57  77 CALM      30.05S
RUSH CITY      PTCLDY    60  58  92 CALM      30.06S
MOOSE LAKE     CLEAR     59  55  88 CALM      30.06S
HINCKLEY       FAIR      63  59  88 N5        30.07S
CLOQUET        CLEAR     59  55  88 NW6       30.08S
MCGREGOR       CLEAR     59  55  88 CALM      30.09S
$$
MNZ071>073-080-081-089-090-097-098-271000-
   Southwest Minnesota

CITY           SKY/WX    TMP DP  RH WIND       PRES   REMARKS
MONTEVIDEO     CLEAR     63  55  77 CALM      30.10S
CANBY          CLEAR     62  60  94 CALM      30.12S
MARSHALL       CLEAR     60  59  96 NW9       30.10S
REDWOOD FALLS  CLEAR     65  60  84 N6        30.08R
OLIVIA         CLEAR     61  59  94 CALM      30.08S
PIPESTONE      CLEAR     64  59  82 NE5       30.11S
WINDOM         CLEAR     63  59  88 N6        30.09S
WORTHINGTON    CLEAR     60  58  92 NW7       30.10S
JACKSON        CLEAR     61  59  94 CALM      30.08F
TRACY          CLEAR     64  62  93 NW5       30.10S
SLAYTON        HVY RAIN  60  52  72 N3        30.12R
$$
MNZ065>067-074>077-082>085-091>093-271000-
   South Central Minnesota

CITY           SKY/WX    TMP DP  RH WIND       PRES   REMARKS
MANKATO        CLEAR     64  61  90 CALM      30.06S
NEW ULM        CLEAR     66  61  82 N5        30.06S
ST JAMES       CLEAR     61  61 100 CALM      30.08S
FAIRMONT       CLEAR     62  61  96 N7        30.06S
GLENCOE        CLEAR     65  64  97 NW5       30.07R
FARIBAULT      CLEAR     61  61 100 CALM      30.05S
OWATONNA       FOG       61  59  94 CALM      30.05S VSB 1/2
WASECA         CLEAR     59  57  94 N3        30.06S
ALBERT LEA     CLEAR     64  63  94 CALM      30.05R
$$
MNZ078>079-086>088-094>096-271000-
   Southeast Minnesota

CITY           SKY/WX    TMP DP  RH WIND       PRES   REMARKS
ROCHESTER      CLEAR     62  61  96 NW8       30.04R
RED WING       CLEAR     63  61  94 CALM      30.02R FOG
STANTON        CLEAR     60  58  95 CALM      30.03S
DODGE CENTER   CLEAR     63  59  88 NW3       30.05R
WINONA         FOG       64  63  94 W5        30.01S VSB 3/4
AUSTIN         CLEAR     63  61  94 N5        30.03S
PRESTON        CLEAR     63  59  86 NW5       30.03S
$$
ABBREVIATIONS USED IN REMARKS
   TC - TEMPERATURES IN CELSIUS
  WCI - WIND CHILL INDEX
   HX - HEAT INDEX
  VSB - VISIBILITY
$$




USA.gov is the U.S. government's official web portal to all federal, state and local government web resources and services.